Location: Bamobli
(6.6379°N, 10.9396°W)
Time: 17:48:14
(UTC+00:00)

Cosmos 2344 - Pass Details

Date: 07 June 2020
Orbit: 1250 x 2992 km, 63.3° (Epoch: 04 July)

Event Time Altitude Azimuth Distance (km) Brightness Sun altitude
Exits shadow 03:10:17 45° 49° (NE) 1,750 4.4 -43.4°
Drops below altitude 10° 03:15:10 10° 32° (NNE) 3,240 6.3 -42.5°
Sets 03:17:47 0° 30° (NNE) 4,184 7.0 -42.0°
